Flag for Canada Weather past 2 weeks in Guelph, Ontario, Canada

Now
70 °F

Sunny.


Feels Like: 70 °F
Forecast: 55 / 80 °F
Wind: 2 mph from North

Location: Waterloo Well

Current Time: Jul 5, 2015 at 10:22:23 AM

Latest Report: Jul 5, 2015 at 9:00 AM


Visibility: 9 mi

Pressure: 30.13 "Hg

Humidity: 64%

Dew point: 57 °F

Location of GuelphLocation

Historic Weather in Guelph — Graph

°F

Guelph temperature yesterday

Maximum temperature yesterday: 77 °F (at 5:00 PM)
Minimum temperature yesterday: 46 °F (at 6:00 AM)
Average temperature yesterday: 63 °F

Past Weeks' High & Low Weather Summary

 TemperatureHumidityPressure
High81 °F (Jun 22, 2:00 PM)100% (Jun 22, 4:48 AM)30.13 "Hg (Jun 22, 4:48 AM)
Low43 °F (Jul 3, 6:00 AM)36% (Jul 3, 4:00 PM)29.66 "Hg (Jun 23, 5:00 AM)
Average63 °F78%29.91 "Hg
* Reported Jun 20 9:00 AM — Jul 5 9:00 AM, Guelph, Weather by CustomWeather, © 2015

Note: Actual official high and low records may vary slightly from our data, if they occured in-between our weather recording intervals... More about our weather records

Advertising

Guelph weather history for previous 24 hours

 ConditionsComfort  
Time TempWeatherWind HumidityBarometerVisibility
9:00 AM
Sun, Jul 5
70 °FSunny.2 mph64%30.13 "Hg9 mi
8:00 AM61 °FFog.No wind94%30.12 "Hg6 mi
7:00 AM55 °FFog.No wind94%30.11 "Hg3 mi
6:02 AM54 °FFog.2 mph100%30.09 "Hg1 mi
5:00 AM55 °FFog.2 mph94%30.08 "Hg2 mi
4:55 AM54 °FFog.2 mph100%30.08 "Hg2 mi
4:00 AM55 °FFog.No wind94%30.08 "Hg3 mi
3:00 AM57 °FFog.2 mph94%30.07 "Hg4 mi
2:00 AM57 °FFog.2 mph94%30.07 "Hg4 mi
1:50 AM57 °FFog.2 mph94%30.07 "Hg5 mi
1:00 AM57 °FClear.2 mph94%30.06 "Hg9 mi
12:00 AM57 °FClear.No wind94%30.05 "Hg9 mi
11:00 PM
Sat, Jul 4
63 °FClear.5 mph83%30.03 "Hg9 mi
10:00 PM63 °FSunny.5 mph83%30.01 "Hg9 mi
9:00 PM68 °FSunny.6 mph64%29.99 "Hg9 mi
8:00 PM72 °FSunny.8 mph57%29.98 "Hg9 mi
7:00 PM75 °FSunny.8 mph54%29.97 "Hg9 mi
6:00 PM75 °FPassing clouds.10 mph50%29.98 "Hg9 mi
5:00 PM77 °FSunny.7 mph44%29.97 "Hg9 mi
4:00 PM75 °FPassing clouds.6 mph44%29.97 "Hg9 mi
3:00 PM75 °FPassing clouds.5 mph47%29.96 "Hg9 mi
2:00 PM73 °FSunny.6 mph47%29.97 "Hg9 mi
1:00 PM72 °FSunny.6 mph50%29.97 "Hg9 mi
12:00 PM70 °FPassing clouds.6 mph57%29.97 "Hg9 mi
11:00 AM68 °FPartly sunny.7 mph60%29.98 "Hg9 mi
10:00 AM66 °FPassing clouds.No wind60%29.96 "Hg9 mi
Weather by CustomWeather, © 2015

See weather overviewHow to use our weather pages